Location: Lourdes
(43.1000°N, 0.0500°W)
Time: 23:05:48
(UTC+00:00)

Cosmos 773 Rocket - Pass Details

Date: 14 April 2021
Orbit: 745 x 777 km, 74.1° (Epoch: 14 May)

Event Time Altitude Azimuth Distance (km) Brightness Sun altitude
Rises 02:33:30 0° 335° (NNW) 3,254 7.5 -27.0°
Reaches altitude 10° 02:35:56 10° 330° (NNW) 2,326 6.7 -26.7°
Enters shadow 02:39:13 36° 309° (NW) 1,221 4.9 -26.2°
